Wind_Speed
47 46 45 45 44 44 43 44 43 45 47 49 49 47 43 42 44 45 43 43 42 42 42 41 41 42 42 41 40 42 45 48 51 53 54 54 51 46 44 45 46 48
49 47 47 47 47 46 46 46 46 47 49 50 48 46 44 41 41 43 41 38 38 38 38 38 38 40 41 39 37 38 40 42 45 50 54 56 57 52 47 44 43 43
50 49 48 49 48 48 48 48 48 49 50 50 47 44 42 38 38 39 37 34 34 33 34 35 37 39 39 36 34 35 37 38 42 46 50 53 55 52 49 45 41 39
52 50 50 50 50 49 50 50 49 49 50 49 47 43 40 36 35 37 35 31 32 31 30 31 34 35 34 32 31 32 33 34 35 37 41 45 50 51 50 46 41 37
53 52 52 52 51 51 51 50 50 49 48 47 44 41 37 33 33 37 35 30 30 31 28 27 31 32 30 29 29 28 29 31 31 31 32 35 42 49 51 49 43 39
55 54 53 53 53 52 52 51 50 49 47 45 42 38 33 31 32 36 33 27 27 30 29 28 32 34 31 30 31 30 30 33 33 32 32 32 35 42 49 51 46 42
56 56 55 54 54 53 53 52 51 49 46 44 41 35 29 28 31 33 31 25 24 28 31 33 37 37 35 33 33 33 33 35 36 35 35 34 35 37 44 50 48 43
57 57 56 55 54 54 54 53 52 49 45 42 39 33 27 28 33 36 33 29 29 32 34 38 43 40 38 37 34 32 33 35 36 36 37 38 36 36 39 45 46 42
58 58 57 56 55 55 55 53 52 50 46 42 37 31 26 30 38 39 36 35 36 37 37 41 45 44 42 40 35 32 34 38 39 39 40 40 38 37 37 40 42 39
60 60 58 56 56 56 54 53 51 50 47 42 36 28 25 33 42 40 37 38 37 37 39 41 43 44 44 42 38 36 37 42 44 42 42 42 38 37 38 39 39 36
61 60 59 57 56 56 55 52 51 49 46 42 34 26 25 37 45 42 39 40 38 36 38 39 40 42 43 42 42 42 43 44 45 42 42 39 34 32 34 36 36 35
62 61 60 58 57 57 55 52 50 48 46 41 32 23 27 40 46 43 39 39 39 37 35 35 37 41 43 43 42 43 44 45 44 43 40 36 33 33 34 35 37 38
62 61 60 59 58 57 54 52 50 48 45 40 30 21 31 43 45 42 39 37 37 38 36 34 35 39 43 44 42 41 43 44 46 46 43 39 39 39 40 40 41 42
63 62 61 60 59 57 54 51 49 47 44 39 28 21 33 44 44 41 40 38 37 39 40 39 38 39 41 43 42 43 42 43 48 52 49 46 47 47 45 44 44 44
64 63 62 61 59 58 55 51 48 46 43 38 27 22 35 44 44 41 41 40 40 42 43 43 43 41 42 44 44 43 42 43 48 53 54 52 52 51 48 46 47 47
66 65 63 62 60 58 55 51 47 44 42 38 27 24 36 45 45 43 43 43 43 44 45 45 44 41 42 44 45 44 42 41 42 47 53 54 54 53 50 48 48 47
67 66 64 63 61 59 56 51 46 43 41 38 29 25 37 47 48 46 46 48 46 45 46 49 46 41 40 43 47 47 43 40 41 43 47 49 52 53 52 50 49 48
68 66 65 64 62 60 57 51 46 42 41 38 31 28 39 50 53 49 49 51 51 47 47 50 46 42 41 44 49 50 46 46 51 50 48 48 49 52 54 52 49 47
67 66 66 65 64 62 59 53 47 42 40 39 33 30 42 54 57 53 51 53 55 51 49 50 46 42 42 44 48 51 50 51 54 51 49 51 51 51 53 53 50 47
68 67 67 66 64 63 60 56 50 43 39 39 36 33 43 57 61 57 53 54 57 55 52 51 50 47 45 44 47 51 51 50 50 48 46 49 51 51 52 53 53 52
69 68 67 66 65 63 62 59 54 46 40 39 39 36 44 59 65 61 57 56 59 59 55 53 55 54 51 49 49 52 52 49 48 47 45 46 49 50 50 52 55 56
70 69 68 67 66 64 63 61 58 51 43 39 41 39 44 59 67 66 62 60 61 62 59 56 57 59 59 56 54 55 57 55 51 47 47 49 51 52 52 54 56 56
71 70 69 68 67 65 64 63 61 56 48 41 41 42 44 57 69 70 67 65 64 64 62 59 58 60 62 63 62 61 62 62 59 54 51 51 53 55 56 57 58 58
72 71 70 69 68 67 67 65 63 60 53 44 42 44 46 54 68 73 71 69 69 68 65 62 60 61 64 66 67 68 67 67 66 64 60 57 56 57 58 59 61 60
73 73 72 71 70 70 69 69 66 62 56 47 43 45 47 52 64 75 76 73 72 71 69 66 64 63 65 67 69 70 71 71 71 71 69 66 64 62 61 61 64 63
75 75 74 73 73 73 73 71 68 63 57 50 45 45 49 53 60 72 79 77 75 74 74 72 69 68 68 69 70 71 71 72 72 73 72 71 70 69 66 65 66 66
Wind_Direction
296 297 297 297 296 297 299 298 295 292 290 287 284 278 269 260 257 255 256 257 254 248 243 241 244 246 245 245 246 246 245 243 240 239 239 239 240 244 249 251 253 256
295 297 298 298 299 300 302 302 300 298 295 291 286 280 272 262 255 251 252 253 251 247 242 239 242 245 244 246 250 252 251 248 247 245 243 242 242 244 246 250 256 257
295 297 299 300 301 302 303 304 303 301 299 294 288 282 275 264 252 247 247 246 245 243 239 236 241 246 246 246 250 254 254 253 252 250 248 247 244 241 241 247 257 259
295 297 299 300 301 302 304 305 304 302 300 295 290 285 277 264 247 239 239 240 237 233 234 237 243 247 246 246 249 254 257 257 255 254 254 251 245 239 237 243 254 259
294 297 298 300 302 303 304 305 305 304 301 296 291 286 277 263 241 229 233 238 232 227 231 242 246 244 242 241 242 247 253 255 255 257 259 258 250 240 236 241 251 257
294 296 298 300 302 303 305 306 306 305 302 297 293 287 275 257 234 221 225 234 233 230 234 244 246 241 235 233 234 238 247 250 251 254 258 261 258 247 239 241 247 254
293 296 298 300 302 304 306 307 307 306 303 299 295 288 271 246 223 213 214 220 230 234 235 240 244 240 231 230 236 240 244 248 250 253 258 262 262 255 244 239 242 251
292 295 297 299 302 304 306 307 308 307 304 301 298 289 265 232 212 205 203 205 219 227 228 234 240 239 232 235 241 242 244 248 250 254 262 264 261 256 246 238 240 246
291 294 296 299 302 304 306 307 309 308 305 303 300 287 257 221 205 203 201 204 213 219 222 231 238 237 234 235 240 242 245 248 250 255 263 265 260 253 244 237 237 239
290 293 296 299 301 303 305 307 309 309 306 304 300 284 248 213 203 203 203 206 210 213 218 226 233 234 233 232 235 239 243 247 251 257 262 263 258 249 239 231 230 235
289 292 295 297 300 302 304 306 309 308 305 304 299 277 235 208 201 201 203 206 209 212 217 223 226 230 231 231 234 239 243 248 254 258 260 257 247 235 228 227 230 240
288 291 294 296 298 301 303 306 308 308 305 304 298 268 223 204 200 201 203 207 211 214 219 223 225 229 231 231 234 239 246 251 255 257 254 244 231 227 232 238 245 252
288 290 293 295 297 300 302 305 307 307 305 302 295 257 214 201 199 200 203 208 212 216 220 221 222 225 227 227 229 234 240 246 251 253 250 238 231 236 245 251 255 258
287 289 292 293 296 299 301 303 306 306 303 301 290 245 209 200 197 198 202 207 211 216 219 220 221 222 224 224 225 227 232 239 245 247 247 242 238 242 248 253 256 257
286 288 290 292 294 297 299 301 304 304 301 298 285 238 207 199 196 196 199 203 208 212 216 219 221 222 224 224 224 224 227 235 242 245 245 243 241 243 246 250 253 255
285 287 289 291 293 295 297 298 302 302 299 294 280 236 209 199 195 197 199 200 205 210 213 217 219 220 220 220 219 217 220 228 239 245 246 242 241 242 245 247 250 253
285 287 288 290 292 293 294 296 299 300 296 290 276 238 211 200 197 200 201 202 206 209 212 216 218 220 219 218 215 215 217 223 229 237 241 241 240 241 243 245 246 247
284 286 287 289 290 291 292 293 296 298 294 287 274 240 213 202 199 201 202 204 207 210 213 216 217 221 225 222 218 218 220 225 231 236 240 240 240 240 240 241 241 244
283 285 286 288 289 290 290 291 293 295 291 283 271 243 216 204 202 203 204 205 207 210 214 216 216 220 227 227 223 222 225 230 235 240 241 239 239 239 238 237 239 246
282 284 285 286 287 288 289 290 291 292 289 280 269 247 220 208 204 206 206 206 208 212 216 218 217 218 224 226 224 224 228 232 234 237 240 239 238 238 238 238 242 248
282 283 284 285 286 286 287 289 289 289 287 277 267 250 225 212 208 208 209 208 210 214 218 221 221 222 223 224 222 221 224 227 229 233 237 239 239 239 240 241 244 247
281 282 282 283 284 284 285 287 288 288 285 275 265 253 231 217 212 210 211 211 212 215 219 222 224 225 226 226 224 222 222 223 225 230 234 236 238 240 241 243 244 245
280 281 282 282 283 283 284 285 286 286 284 274 262 254 238 222 215 213 213 213 213 215 219 222 225 226 228 229 229 228 226 224 225 229 232 233 235 238 240 242 244 245
280 280 281 281 281 282 282 284 284 284 282 274 261 253 244 228 219 216 215 215 215 216 218 221 224 226 228 229 231 233 233 231 229 230 233 234 235 236 239 242 244 245
279 279 280 280 280 281 282 283 283 282 279 272 260 252 245 235 225 220 217 217 217 218 219 220 223 226 228 230 231 232 234 235 234 233 234 236 236 238 240 242 244 244
279 279 279 280 280 281 282 282 282 280 276 269 260 251 245 239 231 224 220 219 218 220 221 222 224 226 228 229 230 231 232 233 235 235 235 236 237 239 240 242 243 244
Height
10662 10661 10659 10658 10657 10657 10656 10655 10655 10653 10651 10650 10648 10648 10650 10652 10653 10654 10654 10655 10656 10658 10661 10665 10668 10670 10672 10672 10673 10674 10676 10678 10679 10680 10680 10681 10683 10685 10686 10686 10687 10686
10657 10656 10654 10652 10651 10650 10649 10648 10647 10645 10643 10641 10640 10640 10641 10643 10644 10645 10647 10649 10651 10654 10657 10660 10662 10664 10667 10668 10669 10670 10672 10674 10675 10675 10675 10675 10677 10680 10681 10682 10682 10681
10652 10650 10649 10647 10645 10644 10643 10642 10641 10638 10635 10632 10632 10632 10632 10634 10636 10636 10639 10643 10647 10650 10652 10655 10657 10659 10663 10666 10666 10667 10668 10669 10670 10669 10668 10669 10671 10674 10676 10678 10677 10676
10646 10645 10643 10641 10640 10638 10637 10636 10634 10632 10629 10625 10624 10624 10624 10627 10629 10629 10631 10636 10641 10645 10648 10651 10653 10656 10661 10664 10664 10665 10664 10664 10664 10663 10662 10663 10665 10668 10671 10672 10672 10672
10640 10639 10638 10636 10635 10633 10631 10630 10628 10626 10624 10620 10617 10617 10617 10620 10623 10624 10627 10632 10637 10641 10645 10647 10649 10652 10657 10660 10662 10662 10662 10660 10659 10658 10658 10658 10659 10662 10665 10666 10668 10668
10633 10633 10632 10630 10629 10627 10625 10624 10622 10619 10617 10614 10611 10611 10611 10613 10617 10621 10626 10631 10635 10638 10641 10642 10642 10645 10650 10654 10656 10657 10658 10657 10655 10654 10654 10654 10654 10656 10658 10661 10662 10663
10626 10626 10625 10624 10623 10621 10619 10617 10615 10613 10610 10608 10605 10604 10605 10607 10612 10617 10622 10628 10632 10634 10637 10637 10635 10637 10642 10646 10648 10651 10653 10653 10652 10650 10649 10650 10650 10651 10653 10655 10657 10660
10620 10620 10619 10618 10617 10615 10613 10610 10608 10606 10604 10602 10599 10598 10599 10602 10607 10611 10615 10619 10623 10626 10630 10630 10628 10631 10636 10639 10642 10646 10648 10648 10647 10646 10645 10645 10646 10647 10648 10650 10653 10656
10614 10614 10613 10612 10611 10609 10607 10605 10602 10599 10597 10596 10594 10593 10593 10596 10601 10606 10608 10610 10612 10616 10622 10622 10621 10625 10631 10634 10637 10641 10643 10643 10643 10643 10642 10641 10641 10642 10644 10646 10649 10652
10608 10608 10607 10606 10605 10603 10602 10599 10597 10594 10591 10590 10589 10588 10588 10591 10596 10601 10604 10606 10607 10610 10613 10615 10616 10620 10625 10629 10633 10636 10637 10637 10638 10638 10638 10637 10637 10638 10640 10643 10646 10649
10602 10602 10601 10600 10599 10598 10596 10595 10592 10589 10587 10585 10584 10583 10583 10586 10591 10596 10600 10602 10604 10606 10608 10610 10612 10616 10620 10624 10628 10630 10631 10632 10633 10634 10634 10633 10634 10634 10636 10639 10642 10645
10596 10596 10595 10594 10594 10593 10591 10590 10587 10585 10582 10580 10580 10579 10579 10582 10586 10592 10595 10597 10600 10603 10605 10607 10609 10612 10614 10618 10622 10626 10627 10629 10630 10629 10629 10630 10630 10631 10633 10635 10637 10640
10590 10589 10589 10588 10588 10588 10587 10585 10583 10580 10578 10576 10575 10575 10575 10578 10582 10587 10590 10592 10596 10599 10601 10603 10604 10606 10608 10611 10617 10620 10622 10624 10625 10624 10625 10626 10626 10627 10628 10630 10631 10634
10583 10583 10582 10582 10582 10582 10582 10580 10578 10576 10573 10572 10572 10571 10572 10575 10579 10582 10585 10588 10592 10594 10596 10598 10598 10599 10602 10605 10609 10612 10615 10619 10619 10618 10619 10621 10621 10622 10623 10625 10626 10628
10576 10575 10576 10576 10576 10577 10577 10576 10574 10571 10569 10568 10568 10568 10569 10571 10575 10577 10580 10583 10585 10588 10590 10592 10592 10593 10595 10598 10601 10605 10610 10612 10612 10611 10612 10614 10615 10617 10619 10620 10621 10622
10568 10568 10569 10569 10570 10571 10571 10570 10569 10566 10564 10563 10563 10564 10565 10568 10570 10572 10573 10575 10577 10580 10583 10584 10584 10586 10587 10590 10593 10597 10600 10602 10603 10604 10604 10607 10609 10611 10613 10615 10615 10617
10561 10561 10561 10562 10563 10564 10564 10565 10564 10562 10559 10558 10559 10560 10561 10563 10565 10566 10567 10569 10570 10572 10575 10576 10577 10578 10580 10582 10585 10588 10591 10592 10593 10594 10596 10600 10603 10605 10607 10609 10610 10611
10554 10553 10553 10554 10554 10556 10557 10558 10558 10557 10554 10553 10553 10555 10556 10558 10559 10560 10561 10562 10564 10565 10566 10568 10570 10571 10572 10574 10577 10581 10583 10582 10583 10587 10591 10594 10597 10599 10600 10602 10603 10604
10546 10546 10546 10546 10546 10547 10548 10550 10551 10551 10549 10547 10547 10549 10551 10552 10553 10553 10554 10555 10557 10558 10558 10560 10563 10564 10565 10568 10572 10576 10577 10576 10579 10584 10587 10588 10590 10592 10594 10595 10596 10596
10538 10538 10538 10537 10538 10538 10538 10540 10542 10544 10544 10542 10541 10543 10544 10545 10546 10546 10547 10548 10549 10551 10551 10552 10555 10556 10558 10561 10565 10569 10570 10571 10573 10577 10580 10582 10584 10586 10588 10589 10589 10589
10530 10530 10529 10529 10529 10529 10530 10531 10533 10535 10537 10536 10535 10535 10537 10538 10539 10539 10540 10540 10542 10543 10544 10545 10546 10548 10550 10553 10556 10559 10561 10564 10567 10570 10573 10574 10576 10578 10581 10583 10582 10581
10520 10520 10521 10521 10521 10521 10521 10522 10523 10526 10528 10529 10528 10528 10530 10531 10531 10532 10532 10533 10534 10535 10537 10538 10538 10540 10543 10545 10547 10550 10553 10556 10559 10563 10565 10567 10569 10570 10572 10573 10573 10572
10510 10511 10511 10511 10511 10512 10512 10513 10514 10516 10519 10521 10520 10520 10521 10523 10524 10524 10524 10525 10526 10527 10529 10530 10531 10533 10535 10537 10539 10542 10544 10547 10551 10555 10558 10559 10561 10563 10563 10563 10562 10562
10501 10501 10501 10501 10501 10502 10502 10503 10505 10506 10508 10511 10512 10511 10512 10514 10515 10516 10516 10517 10518 10518 10520 10522 10524 10525 10527 10529 10531 10533 10535 10538 10542 10546 10549 10551 10554 10555 10556 10555 10553 10553
10490 10491 10491 10491 10491 10491 10492 10493 10494 10496 10498 10500 10502 10502 10503 10504 10506 10507 10508 10509 10510 10510 10511 10513 10515 10517 10519 10520 10522 10524 10526 10529 10532 10536 10540 10543 10545 10546 10548 10547 10544 10545
10479 10480 10480 10480 10480 10480 10480 10481 10483 10484 10487 10489 10491 10493 10493 10494 10496 10498 10499 10500 10501 10502 10503 10504 10506 10507 10509 10511 10513 10516 10518 10520 10522 10526 10529 10533 10535 10537 10540 10539 10535 10535